Terminal Aerodrome Forecast
Issued by NWS

Home | Current Version | Previous Version | Text Only | Print | Product List | Glossary On
Versions: 1 2 3 4 5 6 7 8 9 10 11 12 13 14 15 16 17 18 19 20 21 22 23 24 25
813
FTUS46 KSEW 250520
TAFSEA
TAF
KSEA 250520Z 2506/2612 04003KT P6SM SCT100 BKN150
     FM251200 18003KT P6SM SCT015 BKN050 OVC100
     FM251500 22005KT P6SM VCSH BKN015 OVC050
     FM252100 23006KT P6SM VCSH BKN030 OVC050
     FM260300 20004KT P6SM SCT030 OVC050
     FM260600 20004KT P6SM BKN025 OVC040=

USA.gov is the U.S. government's official web portal to all federal, state and local government web resources and services.